sat.trackr.live / text

‹ back to catalog

COSMOS 2554

NORAD 52202 · 2022-036A

PAYLOAD ACTIVE UNKNOWN

§ Identity

Operator
Country
CIS
Launch date
2022-04-07
Launch site
PLMSC
Launch vehicle
Mass (kg)
RCS (m²)

External: N2YO · Heavens-Above · Gunter

§ Orbital elements

Epoch: 2026-05-25T05:06:36.721728Z

Period
103.10 min
Inclination
67.1485°
Eccentricity
0.0005779
Mean motion
13.96678254 rev/d
Perigee alt
901.1 km
Apogee alt
909.5 km
Semi-major
7,283.5 km
B*
1.7296e-5
RAAN
284.5354°
Arg perigee
258.4805°
Mean anomaly
101.5631°
Rev number
21,074

§ Raw data

COSMOS 25541 52202U 22036A   26145.21292502 -.00000051  00000+0  17296-4 0  99902 52202  67.1485 284.5354 0005779 258.4805 101.5631 13.96678254210747

JSON: /api/v1/satellites/52202 · /tle

For live sub-satellite position, see the globe view (requires WebGL).

§ Visibility from observer

Set your observer location to see the next 7 days of passes ≥ 10°. The values pass through the URL so the page stays shareable.

No JS? Fill the form by hand. The geolocation button needs JavaScript.